(4) Vesta
ephemeris date magn radius delta ra dec elong phase
Today15 Oct 20258.12.159 AU2.618 AU16h50m-21°37'52.4°21.5°
Opposition12 Oct 20266.52.467 AU1.482 AU01h30m-03°16'168.1°4.8°
(4) Vesta - 2025-10-15
astro.vanbuitenen.nl


 
-1 year
-1 month
-1 day
Now
+1 day
+1 month
+1 year

The interactive orbit chart above shows the body's path through the solar system and its position at the given date. Green and blue lines are shown perpendicular to the ecliptic plane: Green if the path is above the ecliptic plane, blue if it is below. (Left-click and drag to rotate the view; Right-click and drag to move the view; Use scroll wheel to zoom in our out.)

The orbital elements of Vesta are:

            e (Eccentricity)                : 0.0901071
            a (Semimajor axis)              : 2.3613975
            i (Inclination)                 : 7.14395
            Ω (Longitude of ascending node) : 103.70294
            ω (Argument of perihelion)      : 151.58337
            M (Mean anomaly)                : 332.45068
            Epoch                           : 2025 May 05

            L (Longitude of perihelion)     : 75.47280
            B (Latitude of perihelion)      : 3.39284
            P (Orbital period in years)     : 3.63            
        

The light curve chart below shows the estimated development of the minor planet's magnitude.


The all-sky chart below shows the path of the minor planet over the same period as the light curve. The current position is marked yellow.





The following chart shows the path of the minor planet in the next few days. The field of view is optimized for (~10x50) binoculars and finderscopes. A more printer-friendly version of the same chart can be found below.




Ephemerides:
Date       Time       RA (2000)    DEC (2000)    delta   radius  elong  phase   PA    magn
2025-10-15 00:00 UT   16 50 43.1   -21 37 19     2.618    2.159   52.4   21.5    96    8.1 
2025-10-15 08:04 UT   16 51 24.5   -21 39 11     2.621    2.160   52.2   21.4    96    8.1 
2025-10-16 00:00 UT   16 52 46.5   -21 42 51     2.628    2.160   51.9   21.3    96    8.1 
2025-10-17 00:00 UT   16 54 50.3   -21 48 15     2.637    2.160   51.4   21.1    96    8.1 
2025-10-18 00:00 UT   16 56 54.6   -21 53 34     2.646    2.161   50.9   21.0    96    8.1 
2025-10-19 00:00 UT   16 58 59.3   -21 58 46     2.655    2.161   50.4   20.8    95    8.1 
2025-10-20 00:00 UT   17 01 04.5   -22 03 52     2.664    2.161   49.9   20.6    95    8.1 
2025-10-21 00:00 UT   17 03 10.1   -22 08 51     2.674    2.162   49.4   20.5    95    8.1 
2025-10-22 00:00 UT   17 05 16.2   -22 13 43     2.683    2.162   48.9   20.3    95    8.1 
2025-10-23 00:00 UT   17 07 22.7   -22 18 29     2.692    2.162   48.4   20.1    95    8.1 
2025-10-24 00:00 UT   17 09 29.5   -22 23 08     2.701    2.163   47.9   19.9    95    8.1 
2025-10-25 00:00 UT   17 11 36.8   -22 27 40     2.709    2.163   47.4   19.8    94    8.1 
2025-10-26 00:00 UT   17 13 44.5   -22 32 05     2.718    2.164   46.9   19.6    94    8.1 
2025-10-27 00:00 UT   17 15 52.6   -22 36 23     2.727    2.164   46.4   19.4    94    8.1 
2025-10-28 00:00 UT   17 18 01.1   -22 40 34     2.736    2.164   45.9   19.2    94    8.1 
2025-10-29 00:00 UT   17 20 09.9   -22 44 38     2.744    2.165   45.4   19.1    94    8.1 
2025-10-30 00:00 UT   17 22 19.1   -22 48 36     2.753    2.165   44.9   18.9    93    8.1 
2025-10-31 00:00 UT   17 24 28.6   -22 52 26     2.761    2.166   44.4   18.7    93    8.1 
2025-11-01 00:00 UT   17 26 38.5   -22 56 08     2.770    2.166   43.9   18.5    93    8.1 


    Terminology:
            
    delta:  distance between minor planet and earth in AU
    radius: distance between minor planet and sun in AU
    magn:   magnitude (brightness) estimate    
    ra:     right ascension in hours (24h = 360deg)
    dec:    declination in degrees
    elong:  elongation in degrees (angle sun-earth-minor planet)    
    phase:  phase angle in degrees (angle sun-minor planet-earth)        
    AU:     Astronomical Unit (mean distance between earth and sun: 149597870.7 km
    

Orbital elements provided by the MPC (Minor Planet Center).
Calculations by a modified version of AAPlus, a C# implementation of the AA+ project by PJ Naughter from the algorithms presented in the book "Astronomical Algorithms" by Jean Meeus.
NGC2000 dso catalog and star labels from VizieR as provided by the Strasbourg astronomical Data Center.
Tycho2 catalog from the ESO archive.